User: anonymous   Login
Location: El Bakhil
(32.7726°N, 5.5387°W)
Time: 00:24:43
(UTC+00:00)
Language:

AAUSAT CUBESAT 2 - Orbit

View from above orbital plane
View from above orbital plane
View from above satellite
View from above satellite

Ground track
Ground track

The orbit data is extracted from the following two-line orbital elements,

1 32788U 08021F   21216.52563832  .00001142  00000-0  10743-3 0  9991
2 32788  97.5065 209.1729 0013349 106.3594 253.9096 14.95672543721044
Epoch (UTC): 04 August 2021 12:36:55
Eccentricity: 0.0013349
inclination: 97.5065°
perigee height: 571 km
apogee height: 589 km
right ascension of ascending node: 209.1729°
argument of perigee: 106.3594°
revolutions per day: 14.95672543
mean anomaly at epoch: 253.9096°
orbit number at epoch: 72104

The dashed part of the orbit path shows where the satellite is in the earth's shadow,  

DLR